This demonstration page uses our WeatherBlox Daily Observations layout. Learn more.

Left ArrowRight Arrow

39.08367, -84.50855

Hourly Observations for October 10, 2018

Temp ( °F °C ) Dew Point ( °F °C ) Humidity (%) Winds ( mph kmh ) Pressure ( in mb ) Visibility ( mi km ) Precip ( " mm )
12:53 am 00:53 Clear 66 18.9 66 18.9 100 100 WSW 5 7 29.99 1016 9 14 N/A
1:53 am 01:53 Clear 67 19.4 66 18.9 97 97 VRB 3 6 29.98 1015 10 16 N/A
2:53 am 02:53 Clear 66 18.9 65 18.3 96 96 N N/A 29.97 1015 10 16 N/A
3:53 am 03:53 Clear 66 18.9 66 18.9 100 100 N N/A 29.95 1014 10 16 N/A
4:53 am 04:53 Clear 65 18.3 65 18.3 100 100 N N/A 29.95 1014 10 16 N/A
5:53 am 05:53 Clear 66 18.9 66 18.9 100 100 N N/A 29.94 1014 10 16 N/A
6:53 am 06:53 Mostly Cloudy 65 18.3 65 18.3 100 100 N N/A 29.93 1013 10 16 N/A
7:53 am 07:53 Mostly Cloudy 67 19.4 67 19.4 100 100 N N/A 29.93 1013 10 16 N/A
8:53 am 08:53 Partly Cloudy 71 21.7 67 19.4 87 87 N N/A 29.92 1013 10 16 N/A
9:53 am 09:53 Mostly Cloudy 73 22.8 67 19.4 81 81 S 8 13 29.91 1013 10 16 N/A
10:53 am 10:53 Mostly Cloudy 74 23.3 66 18.9 76 76 SSE 9 15 29.89 1012 10 16 N/A
11:53 am 11:53 Mostly Cloudy 75 23.9 67 19.4 76 76 S 10 17 29.88 1012 10 16 N/A
12:53 pm 12:53 Cloudy with Light Rain 72 22.2 70 21.1 94 94 SSE 5 7 29.87 1012 4 6 0.02 0.51
1:53 pm 13:53 Mostly Cloudy with Light Rain 73 22.8 70 21.1 90 90 SSE 8 13 29.83 1010 10 16 N/A
2:53 pm 14:53 Cloudy 74 23.3 70 21.1 88 88 SE 7 11 29.79 1009 10 16 N/A
3:02 pm 15:02 Cloudy 75 23.9 70 21.1 84 84 VRB 7 11 29.80 1009 10 16 N/A
3:12 pm 15:12 Mostly Cloudy 75 23.9 70 21.1 84 84 S 7 11 29.80 1009 10 16 N/A
3:53 pm 15:53 Mostly Cloudy 75 23.9 70 21.1 84 84 SSE 10 17 29.77 1008 10 16 N/A
4:53 pm 16:53 Cloudy 76 24.4 71 21.7 85 85 SSE 3 6 29.76 1008 10 16 N/A
5:53 pm 17:53 Sunny 76 24.4 72 22.2 88 88 N N/A 29.73 1007 10 16 N/A
6:53 pm 18:53 Cloudy 75 23.9 72 22.2 90 90 N N/A 29.73 1007 10 16 N/A
7:53 pm 19:53 Cloudy with Light Rain 74 23.3 72 22.2 94 94 N N/A 29.74 1007 10 16 N/A
8:53 pm 20:53 Cloudy with Rain 73 22.8 73 22.8 100 100 WSW 8 13 29.75 1007 5 8 0.08 2.03
9:53 pm 21:53 Partly Cloudy 72 22.2 72 22.2 100 100 S 3 6 29.74 1007 10 16 0.05 1.27
10:53 pm 22:53 Mostly Cloudy 71 21.7 71 21.7 100 100 N N/A 29.75 1007 10 16 N/A
11:53 pm 23:53 Mostly Cloudy 71 21.7 71 21.7 100 100 N N/A 29.75 1008 10 16 N/A

Powered by AerisWeather